This is the latest recevied weather packets stored in our database for station/object WP3XM. If no packets are shown the sender has not sent any weather packets the latest 10 day(s).
| Time | Temp. | Humidity | Pressure | Rain* | Wind** | Luminosity | Snow |
|---|---|---|---|---|---|---|---|
| 1777723766 | 26.11° C | 87% | 1018 hPa | 0 mm | - | 133 W/m² | - |
| 1777723462 | 25.56° C | 87% | 1017.7 hPa | 0 mm | - | 142 W/m² | - |
| 1777723159 | 25.56° C | 89% | 1017.8 hPa | 0 mm | - | 101 W/m² | - |
| 1777722856 | 25.56° C | 89% | 1017.7 hPa | 0 mm | - | 107 W/m² | - |
| 1777722552 | 25° C | 90% | 1017.7 hPa | 0 mm | - | 101 W/m² | - |
| 1777722249 | 25° C | 90% | 1017.7 hPa | 0 mm | - | 315 W/m² | - |
| 1777721946 | 25° C | 91% | 1017.4 hPa | 0 mm | - | 382 W/m² | - |
| 1777721644 | 24.44° C | 91% | 1017.5 hPa | 0 mm | - | 133 W/m² | - |
| 1777721342 | 25° C | 91% | 1017.4 hPa | 0 mm | - | 67 W/m² | - |
| 1777721040 | 24.44° C | 92% | 1017.5 hPa | 0 mm | - | 219 W/m² | - |
| 1777720737 | 24.44° C | 93% | 1017.3 hPa | 0 mm | - | 202 W/m² | - |
| 1777720434 | 23.89° C | 94% | 1017.5 hPa | 0 mm | - | 176 W/m² | - |
| 1777720131 | 23.89° C | 94% | 1017.4 hPa | 0 mm | - | 83 W/m² | - |
| 1777719829 | 22.78° C | 94% | 1017.5 hPa | 0 mm | - | 96 W/m² | - |
| 1777719526 | 22.78° C | 95% | 1017.4 hPa | 0 mm | - | 88 W/m² | - |
| 1777719223 | 22.78° C | 95% | 1017.4 hPa | 0 mm | - | 73 W/m² | - |
| 1777718921 | 22.22° C | 95% | 1017.2 hPa | 0 mm | - | 44 W/m² | - |
| 1777718618 | 22.22° C | 95% | 1017 hPa | 0 mm | - | 54 W/m² | - |
| 1777718315 | 22.22° C | 94% | 1017 hPa | 0 mm | - | 30 W/m² | - |
| 1777718013 | 22.22° C | 95% | 1017 hPa | 0 mm | - | 33 W/m² | - |
| 1777717710 | 22.22° C | 94% | 1017 hPa | 0 mm | - | 24 W/m² | - |
| 1777717406 | 22.22° C | 94% | 1017 hPa | 0 mm | - | 21 W/m² | - |
| 1777717104 | 22.22° C | 94% | 1017 hPa | 0 mm | - | 19 W/m² | - |
| 1777716802 | 22.22° C | 95% | 1016.9 hPa | 0 mm | - | 17 W/m² | - |
| 1777716500 | 22.22° C | 95% | 1016.7 hPa | 0 mm | - | 11 W/m² | - |
* Rain latest hour (hover to see other rain measurements)
** Current wind speed in m/s (hover to see current wind gust speed)